This is the latest recevied weather packets stored in our database for station/object K3SV. If no packets are shown the sender has not sent any weather packets the latest 1 day(s).
| Time | Temp. | Humidity | Pressure | Rain* | Wind** | Luminosity | Snow |
|---|---|---|---|---|---|---|---|
| 1778015840 | 31.11° C | 40% | 1014.1 hPa | 0 mm | 0.89 m/s, 20° | 392 W/m² | - |
| 1778015537 | 31.11° C | 40% | 1014.1 hPa | 0 mm | 0 m/s | 415 W/m² | - |
| 1778015234 | 30.56° C | 40% | 1014.1 hPa | 0 mm | 0 m/s | 227 W/m² | - |
| 1778014931 | 30° C | 41% | 1014.1 hPa | 0 mm | 0.45 m/s, 214° | 383 W/m² | - |
| 1778014629 | 31.11° C | 40% | 1014 hPa | 0 mm | 1.34 m/s, 187° | 340 W/m² | - |
| 1778014327 | 30.56° C | 41% | 1014 hPa | 0 mm | 0 m/s | 313 W/m² | - |
| 1778014023 | 31.11° C | 41% | 1013.9 hPa | 0 mm | 0 m/s | 329 W/m² | - |
| 1778013721 | 31.67° C | 42% | 1014 hPa | 0 mm | 0.89 m/s, 78° | 370 W/m² | - |
| 1778013418 | 31.67° C | 41% | 1013.9 hPa | 0 mm | 0.45 m/s, 319° | 300 W/m² | - |
| 1778013114 | 30.56° C | 41% | 1014.1 hPa | 0 mm | 0.89 m/s, 306° | 473 W/m² | - |
| 1778012809 | 30.56° C | 42% | 1014.1 hPa | 0 mm | 0 m/s | 433 W/m² | - |
| 1778012506 | 31.11° C | 42% | 1014.2 hPa | 0 mm | 0.89 m/s, 94° | 319 W/m² | - |
| 1778012203 | 31.11° C | 41% | 1014.2 hPa | 0 mm | 0.89 m/s, 171° | 317 W/m² | - |
| 1778011901 | 32.22° C | 41% | 1014.3 hPa | 0 mm | 0.89 m/s, 353° | 285 W/m² | - |
| 1778011599 | 32.78° C | 38% | 1014.3 hPa | 0 mm | 0.45 m/s, 1° | 445 W/m² | - |
| 1778011296 | 31.67° C | 38% | 1014.1 hPa | 0 mm | 0.45 m/s, 21° | 473 W/m² | - |
| 1778010991 | 32.78° C | 38% | 1014.2 hPa | 0 mm | 0.45 m/s, 69° | 538 W/m² | - |
| 1778010689 | 31.67° C | 39% | 1014.4 hPa | 0 mm | 0 m/s | 535 W/m² | - |
| 1778010386 | 31.11° C | 39% | 1014.5 hPa | 0 mm | 0.45 m/s, 293° | 615 W/m² | - |
| 1778010082 | 30.56° C | 41% | 1014.7 hPa | 0 mm | 0.45 m/s, 109° | 652 W/m² | - |
| 1778009779 | 30.56° C | 43% | 1014.8 hPa | 0 mm | 0 m/s | 646 W/m² | - |
| 1778009476 | 30.56° C | 44% | 1014.6 hPa | 0 mm | 0.89 m/s, 110° | 654 W/m² | - |
| 1778009174 | 30.56° C | 44% | 1014.6 hPa | 0 mm | 0.89 m/s, 134° | 704 W/m² | - |
| 1778008871 | 30.56° C | 44% | 1014.8 hPa | 0 mm | 0.45 m/s, 181° | 683 W/m² | - |
| 1778008570 | 30.56° C | 44% | 1014.8 hPa | 0 mm | 0.45 m/s, 115° | 704 W/m² | - |
* Rain latest hour (hover to see other rain measurements)
** Current wind speed in m/s (hover to see current wind gust speed)